Location: Unspecified
(0.0000°N, 0.0000°E)
Time: 05:58:02
(UTC+00:00)

Courier 1B - Pass Details

Date: 01 October 2023
Orbit: 962 x 1208 km, 28.3° (Epoch: 06 December)

Event Time Altitude Azimuth Distance (km) Brightness Sun altitude
Rises 17:46:41 0° 314° (NW) 4,093 11.5 0.7°
Reaches altitude 10° 17:49:47 10° 321° (NW) 3,117 10.7 0.0°
Maximum altitude 17:56:57 40° 28° (NNE) 1,642 8.5 -1.8°
Drops below altitude 10° 18:03:50 10° 96° (E) 2,993 9.4 -3.5°
Enters shadow 18:05:45 - 101° (E) 3,594 9.8 -4.0°
Sets 18:06:44 0° 103° (ESE) 3,915 - -4.3°
